Regional Weather Roundup
Issued by NWS Sioux Falls, SD

Home | Current Version | Previous Version | Graphics & Text | Print | Product List | Glossary On
Versions: 1 2 3 4 5 6 7 8 9 10 11 12 13 14 15 16 17 18 19 20 21 22 23 24 25 26 27 28 29 30 31 32 33 34 35 36 37 38 39 40 41 42 43 44 45 46 47 48 49 50
000
ASUS43 KFSD 070110
RWRFSD

WEATHER ROUNDUP FOR SE SOUTH DAKOTA/SW MINNESOTA/NW IOWA
NATIONAL WEATHER SERVICE SIOUX FALLS SD
700 PM CST TUE DEC 06 2016

NOTE: "FAIR" INDICATES FEW OR NO CLOUDS BELOW 12,000 FEET WITH NO
SIGNIFICANT WEATHER AND OR OBSTRUCTIONS TO VISIBILITY.


SDZ038>040-050-052>070-070200-
SOUTHEAST SOUTH DAKOTA

CITY           SKY/WX    TMP DP  RH WIND       PRES   REMARKS
BROOKINGS      FLURRIES  11   5  77 W24G32    29.90R WCI  -9
CHAMBERLAIN    PTCLDY    14   5  67 NW28G37   30.06S WCI  -6
HURON          CLEAR     11   3  70 W24G35    30.00R WCI  -9
MADISON        FLURRIES  10   9  92 W22G31    29.93R WCI  -9
MITCHELL       CLEAR     15   7  70 NW22      30.05R WCI  -3
SIOUX FALLS    CLEAR     16   9  74 W22G32    29.96R WCI  -2
WINNER         FAIR      14   4  64 NW15      30.06R WCI  -1
YANKTON        PTCLDY    18   7  62 W23       30.04R WCI   0
$$

MNZ071-072-080-081-089-090-097-098-070200-
SOUTHWEST MINNESOTA

CITY           SKY/WX    TMP DP  RH WIND       PRES   REMARKS
FAIRMONT       PTCLDY    19  12  74 W23G29    29.89R WCI   2
JACKSON        CLEAR     18  10  73 W28G35    29.88R WCI  -1
LUVERNE        CLEAR     16   9  73 W21G28    29.95R WCI  -2
MARSHALL       CLEAR     14   7  73 W30G38    29.86R WCI  -7
MONTEVIDEO     CLOUDY    16   9  73 NW22G31   29.85R WCI  -2
PIPESTONE      MOCLDY    14   9  79 NW22G32   29.88S WCI  -4
REDWOOD FALLS  MOCLDY    16   6  65 W24G40    29.85R WCI  -2
TRACY          CLEAR     16   9  75 W18G36    29.86R WCI  -1
WINDOM         CLEAR     16   9  73 W24G31    29.85R WCI  -3
WORTHINGTON    PTCLDY    15   9  76 W24G32    29.89R WCI  -4
$$

IAZ001>003-012>014-020>022-031-032-NEZ013-014-SDZ071-070200-
NORTHWEST IOWA

CITY           SKY/WX    TMP DP  RH WIND       PRES   REMARKS
CHEROKEE       CLEAR     20  10  66 W17G28    29.99S WCI   5
DENISON        CLEAR     23  14  68 W13       30.01R WCI  11
ESTHERVILLE    PTCLDY    18  12  77 W21G31    29.90R WCI   1
LE MARS        CLEAR     19   9  63 W16G22    30.03R WCI   5
ORANGE CITY    CLEAR     18  10  73 W22G30    29.98R WCI   0
SHELDON        MOCLDY    18  12  79 W23G31    29.94R WCI   0
SIOUX CITY     CLEAR     22  11  62 W7        30.06R WCI  13
SPENCER        CLEAR     18  11  74 W32G40    29.94R WCI  -2
STORM LAKE     CLEAR     19  10  68 W20G28    29.97R WCI   4
$$

ABBREVIATIONS USED IN REMARKS
   TC - TEMPERATURE IN CELSIUS
  WCI - WIND CHILL INDEX
   HX - HEAT INDEX
  VSB - VISIBILITY





USA.gov is the U.S. government's official web portal to all federal, state and local government web resources and services.